Theta_e
332 339 331 324 313 313 305 306 312 310 312 316 318 319 319 320 314 312 339 341 341 342 344 344 347 347 346 344 343 343 342 343 342 340 340 338 337 336 337 339 339 340 342 343 341 340 338 339 338
331 328 325 322 310 304 304 310 308 312 317 321 321 321 320 318 328 331 334 341 342 342 342 341 344 347 345 345 344 344 342 341 341 340 338 337 337 335 335 334 338 338 339 339 339 338 337 337 337
329 324 320 316 311 305 305 310 312 318 319 318 319 323 322 322 330 333 339 342 342 342 341 341 344 346 345 345 344 344 343 340 339 337 335 336 335 335 334 334 334 337 337 336 336 336 339 336 337
323 323 320 310 306 308 309 312 316 316 315 317 321 318 327 332 333 337 341 342 342 341 342 342 344 344 342 342 343 342 341 339 338 337 335 335 333 333 334 333 331 336 336 334 334 334 336 337 336
324 322 311 308 307 309 312 315 317 313 314 317 319 317 322 332 337 341 341 342 341 341 342 342 343 345 343 342 342 343 342 341 340 338 337 335 334 332 333 333 332 334 334 334 332 331 332 334 335
317 319 307 305 307 310 313 317 316 314 314 316 317 321 324 334 338 340 342 341 342 341 342 341 337 341 343 343 343 344 343 342 341 341 339 337 335 333 332 331 331 331 331 331 331 330 329 331 332
314 313 306 308 308 308 312 317 314 316 314 315 323 317 325 331 339 341 342 342 342 343 343 342 342 340 336 339 340 341 342 341 341 341 341 339 338 337 334 334 331 329 328 329 330 329 329 329 330
316 315 307 309 307 308 314 315 317 317 314 321 324 314 320 331 339 340 341 340 341 342 342 343 344 343 343 343 333 335 338 338 338 337 337 334 334 335 334 332 333 331 330 330 330 329 329 329 329
312 310 306 307 308 309 314 313 316 319 317 319 321 321 328 335 339 337 337 338 339 340 342 343 343 343 342 342 338 332 333 334 334 334 331 331 338 338 336 331 332 332 333 333 333 333 333 331 330
309 309 309 311 312 311 313 315 315 316 315 318 320 325 332 336 336 334 333 333 335 337 340 342 342 342 342 340 342 342 342 342 341 340 340 340 338 338 336 329 327 330 330 331 332 333 333 330 334
307 305 307 309 310 313 313 313 317 316 312 318 317 323 331 333 334 333 333 335 335 338 339 341 341 342 342 341 342 342 342 342 342 340 340 339 338 338 337 338 336 337 326 335 333 334 334 333 334
304 307 308 309 310 311 312 316 315 317 317 321 323 326 330 330 331 332 332 334 335 337 338 340 341 341 342 342 341 341 341 341 341 340 340 339 338 337 336 336 337 336 335 334 334 335 335 333 333
304 305 309 309 309 310 313 312 314 316 315 319 324 327 328 329 330 333 334 335 336 335 337 339 341 340 341 341 341 341 341 340 341 341 340 339 338 337 336 335 335 335 335 334 333 331 329 329 329
304 305 307 309 308 309 310 309 312 316 317 321 323 325 327 328 329 331 332 333 334 336 337 338 339 340 340 340 341 340 341 341 341 341 341 339 338 338 337 334 332 332 333 333 334 333 330 329 329
303 301 304 306 307 307 310 306 308 311 315 319 322 324 325 327 330 330 331 332 334 335 336 337 338 339 339 340 340 341 341 340 340 340 341 340 339 338 337 333 331 332 332 332 331 332 332 331 329
298 300 298 302 306 305 307 305 310 311 314 316 320 322 324 325 328 330 332 333 334 335 335 336 334 336 338 339 339 340 340 339 339 339 339 339 339 339 339 336 334 335 335 332 330 330 329 328 328
295 292 296 297 303 304 306 305 305 308 312 314 318 321 322 324 326 329 331 333 333 334 334 333 332 332 334 337 337 335 330 327 326 327 330 333 337 338 338 338 338 337 336 335 335 330 330 330 330
292 291 293 295 296 302 301 304 302 303 306 312 314 317 320 321 323 327 329 331 332 332 330 328 324 322 323 325 324 323 320 319 320 321 323 326 330 335 337 338 339 338 337 335 334 331 329 328 327
296 293 293 295 296 297 300 301 304 305 304 305 308 311 313 316 322 324 325 327 324 323 321 320 318 318 318 318 318 318 317 319 321 323 322 325 327 330 334 335 337 337 334 332 329 327 326 324 327
294 292 291 292 295 295 294 296 300 300 301 305 307 307 307 310 313 314 315 318 318 319 317 316 315 317 316 317 317 318 319 322 323 320 318 319 324 329 332 333 335 334 331 328 328 327 322 326 327
292 292 290 291 291 293 293 294 296 300 299 301 303 305 307 308 309 310 311 311 314 313 314 314 314 315 315 315 316 317 320 320 317 316 317 315 316 319 325 329 329 327 328 325 325 325 324 322 325
290 294 293 291 291 288 292 288 296 295 294 296 298 302 304 306 306 307 308 310 311 311 313 313 313 313 312 313 314 316 315 315 318 318 313 310 311 313 315 317 319 319 319 319 319 318 322 321 319
292 295 294 292 292 290 289 287 291 291 291 295 298 300 301 303 303 304 305 307 308 310 312 312 311 310 310 310 313 315 316 317 316 311 309 307 306 306 307 309 310 311 313 312 313 313 315 317 318
296 293 292 292 290 283 288 286 289 290 291 294 295 297 297 299 301 302 303 303 304 306 308 310 308 308 307 308 310 314 315 314 310 308 308 306 305 304 303 303 306 307 307 307 308 307 307 309 311
294 290 283 281 281 279 285 284 288 292 292 294 295 295 298 301 301 301 303 303 304 303 305 306 306 304 304 306 308 311 315 314 312 309 308 304 302 301 300 301 302 302 302 302 303 303 303 304 306
291 288 282 276 277 281 284 281 287 294 296 297 297 298 298 300 301 301 302 302 303 302 303 303 302 302 301 303 305 307 310 311 310 308 306 305 303 301 298 299 299 299 299 299 300 300 300 300 301
290 286 289 282 278 281 284 287 291 294 294 296 296 296 298 300 302 302 302 302 302 301 301 302 301 301 300 301 301 302 305 306 305 304 303 301 299 297 296 297 297 297 297 297 298 298 298 298 298
293 293 284 285 277 275 280 282 284 290 292 294 295 296 297 298 300 301 302 302 302 301 301 301 301 300 300 299 299 300 301 302 302 300 298 297 296 295 295 295 295 295 295 295 296 296 295 295 295
289 287 288 287 285 279 277 282 291 291 292 293 295 296 298 300 300 301 302 301 301 300 300 300 299 299 298 297 297 297 297 297 296 296 295 294 294 294 294 294 293 293 293 293 294 294 293 292 291
293 290 289 283 280 283 281 283 292 293 294 295 296 295 298 298 301 302 301 301 300 300 299 298 298 298 297 297 295 295 294 293 293 293 293 293 293 293 293 292 291 291 291 292 292 291 291 290 289
Wind_Speed
3 10 4 5 6 3 6 6 2 9 8 3 4 3 1 5 3 5 9 9 15 14 13 12 9 11 12 12 12 11 11 12 12 10 10 10 10 10 11 11 10 11 13 14 14 12 13 12 11
6 5 4 1 4 5 6 6 9 8 5 9 7 5 2 4 4 7 10 11 16 14 12 12 10 11 10 12 11 10 11 11 10 9 9 8 9 8 9 9 11 11 12 12 12 11 10 10 11
7 4 3 3 3 3 4 9 10 11 9 6 6 1 2 4 5 11 9 15 15 13 11 11 10 11 10 9 8 11 11 10 10 9 8 8 8 9 9 9 7 7 11 10 10 11 9 9 10
4 4 3 6 5 3 2 11 12 12 3 3 5 7 4 2 12 5 15 15 13 12 11 12 10 10 10 9 9 12 11 10 10 10 9 9 8 8 8 6 4 8 11 9 9 9 10 7 10
3 3 4 4 4 5 4 9 16 10 8 8 5 6 7 7 3 12 15 13 13 12 11 12 9 9 9 9 9 10 10 11 10 9 8 8 8 7 7 6 5 6 8 7 7 7 7 8 9
4 3 8 9 4 4 7 13 12 7 8 7 5 11 7 6 11 14 14 13 11 12 11 11 9 8 8 7 7 6 5 7 7 8 9 8 7 6 5 5 4 4 4 4 5 5 5 5 6
4 5 9 8 9 7 8 13 11 8 9 6 9 9 6 9 13 13 13 12 11 11 10 9 11 10 6 6 7 7 5 5 4 4 6 6 6 6 5 4 4 3 3 3 3 3 3 3 3
1 2 8 7 13 8 12 13 6 8 7 6 3 5 8 14 14 13 12 12 11 10 10 10 9 9 9 9 6 6 5 5 5 4 4 4 4 5 5 4 5 3 2 1 1 1 0 1 1
1 5 8 10 12 9 12 10 5 2 10 3 5 1 5 18 15 13 13 11 10 9 9 9 9 9 8 7 7 5 5 4 5 6 5 5 5 6 6 3 2 3 3 3 3 3 3 3 4
2 4 7 4 6 11 16 10 12 8 10 5 7 4 13 20 17 15 13 12 12 12 11 9 9 9 8 6 7 7 5 6 5 5 5 5 5 4 4 2 4 4 4 5 5 5 4 6 3
2 2 2 3 2 7 15 10 5 10 9 8 12 13 18 19 17 15 14 13 13 12 9 10 9 9 9 7 5 4 4 4 4 6 5 4 3 4 5 4 4 5 5 5 5 4 4 4 4
2 4 2 3 2 6 10 11 8 10 4 3 6 15 20 20 18 16 14 12 12 11 11 11 10 9 9 6 6 5 5 5 5 6 6 5 4 4 4 3 3 3 3 3 3 3 3 5 5
5 3 4 3 4 3 7 6 4 9 3 1 8 16 19 17 17 15 13 12 12 12 12 12 11 10 9 9 6 6 6 5 6 6 6 6 5 5 4 4 4 4 3 5 4 4 3 3 4
4 4 3 4 4 3 7 3 3 6 2 5 11 16 17 18 17 14 14 14 14 12 12 11 11 11 10 9 9 7 6 6 6 6 6 9 7 6 5 4 4 5 5 4 5 4 4 4 4
4 1 2 3 2 2 3 3 9 3 3 5 9 11 13 14 14 16 15 14 13 11 10 11 10 10 11 11 9 7 6 6 6 6 8 9 8 8 8 6 5 6 6 5 5 5 5 5 5
6 4 5 2 1 2 5 13 7 3 8 9 9 10 12 14 14 13 12 13 12 12 12 10 8 10 11 10 8 7 6 6 6 6 6 9 10 11 9 7 7 8 5 5 4 4 4 5 6
3 6 8 3 4 1 6 5 5 3 4 9 9 11 11 11 12 13 14 14 13 12 12 11 10 11 11 9 7 7 6 5 5 5 6 8 10 11 10 8 8 6 5 7 5 4 5 5 5
8 6 3 8 2 2 4 8 4 2 4 7 7 10 11 13 17 15 15 13 11 11 11 10 7 8 8 5 5 4 4 4 4 5 5 7 7 10 10 9 9 7 6 5 4 5 3 4 6
6 7 10 3 2 3 7 10 10 4 4 7 10 10 10 14 13 13 12 11 11 11 12 11 10 10 8 6 5 5 6 4 4 4 4 5 7 8 9 8 9 8 6 5 5 4 5 4 3
8 7 5 1 3 3 1 11 11 8 8 11 14 12 13 13 14 13 13 13 13 13 12 11 12 12 10 7 4 3 3 3 2 2 1 2 4 5 7 9 8 7 4 4 5 4 4 2 2
3 9 5 1 2 2 5 11 11 7 8 11 14 17 16 19 19 16 13 14 12 12 12 12 12 12 10 9 5 4 3 2 3 4 2 1 2 1 3 5 5 5 4 4 3 3 3 4 2
7 6 8 8 3 6 4 9 9 7 9 9 14 17 20 19 17 16 15 13 13 13 10 11 11 12 9 9 8 9 7 7 4 3 3 3 1 1 1 3 3 4 3 3 2 1 0 2 4
2 8 8 3 4 3 5 8 6 1 8 16 20 17 14 12 12 14 13 13 13 11 10 11 11 11 10 10 10 8 8 4 4 4 6 4 3 3 3 3 3 3 2 3 3 2 1 1 2
14 12 9 5 2 7 9 8 12 11 12 13 3 2 1 4 6 8 8 7 9 7 8 9 12 11 11 10 10 10 9 8 6 6 5 4 3 3 3 4 4 3 3 3 3 3 3 1 0
4 12 4 3 4 7 3 8 16 4 11 11 8 5 9 7 8 9 9 9 7 6 8 10 12 12 9 9 8 9 10 10 10 9 7 7 5 4 4 4 4 3 4 4 4 4 3 2 2
12 10 5 8 7 2 2 10 4 7 11 11 6 6 9 9 6 8 9 8 7 6 8 9 9 9 7 7 7 6 8 6 6 8 6 6 5 5 5 4 4 5 4 4 4 3 3 4 3
8 9 3 6 2 2 5 6 11 10 16 10 3 3 5 4 6 7 7 6 6 6 8 10 10 9 9 9 7 7 7 8 8 8 6 5 5 5 6 5 5 5 5 5 5 3 4 4 4
6 13 5 1 5 7 6 7 10 4 5 3 1 3 3 4 5 5 5 5 5 5 6 9 10 11 8 8 7 7 7 7 6 6 7 7 6 7 7 6 5 5 5 5 5 4 4 4 3
6 7 2 3 4 4 4 6 3 5 3 2 1 3 5 4 6 5 5 4 5 4 6 8 8 8 8 8 7 6 6 6 6 7 7 7 7 7 7 7 6 6 6 5 5 6 6 6 5
12 9 9 5 5 4 3 7 5 4 3 3 3 3 6 4 5 4 4 4 5 6 8 10 10 10 9 8 8 8 7 7 7 8 8 8 9 8 8 8 7 7 7 7 7 8 7 7 7
Wind_Direction
158 158 184 214 222 232 139 152 124 151 167 113 140 226 175 11 352 47 131 142 143 145 141 152 140 142 142 143 137 132 122 114 114 108 103 94 84 88 79 70 78 73 71 72 78 76 74 75 80
150 171 221 229 242 213 139 147 179 155 111 131 122 134 161 90 69 119 140 159 151 147 150 146 127 129 140 153 147 140 132 126 120 114 105 99 89 98 82 70 69 88 78 71 73 68 76 76 74
173 242 241 218 227 213 153 172 139 124 131 164 134 5 88 98 106 143 115 152 148 148 149 132 136 136 139 132 135 149 135 132 129 120 114 113 104 96 94 76 64 74 88 72 67 60 70 85 82
197 186 154 241 179 100 109 149 149 144 140 208 150 120 123 358 141 127 142 151 151 147 148 137 141 142 144 145 140 145 136 137 139 132 124 121 114 117 107 98 95 81 100 83 70 66 66 87 88
219 210 187 202 139 120 135 145 157 159 141 153 182 131 112 132 109 140 149 157 152 151 148 152 148 145 145 146 149 153 157 152 153 149 143 138 131 129 130 116 117 81 76 82 74 67 67 74 80
189 255 197 187 159 123 136 159 162 155 147 141 158 140 131 131 145 146 154 159 157 154 154 150 154 152 152 149 147 153 159 151 168 166 159 158 153 145 142 136 126 121 104 108 82 71 60 61 76
226 217 193 164 153 161 154 171 181 166 156 164 138 135 115 165 154 153 160 158 164 158 163 165 165 164 164 163 163 164 160 140 126 158 144 157 162 167 157 153 166 172 161 151 132 100 79 73 69
132 229 158 162 175 166 155 172 192 183 139 115 181 163 160 163 158 155 158 162 167 168 174 174 175 174 176 170 179 178 175 161 151 144 157 174 179 191 188 186 192 201 194 196 154 179 159 65 65
261 196 185 169 176 148 158 172 161 126 139 168 162 184 127 146 154 159 159 166 173 179 183 183 183 186 187 188 166 194 203 196 187 182 177 185 224 202 190 162 185 236 262 278 280 272 259 264 228
292 220 175 146 152 168 168 182 154 168 155 164 169 133 148 150 165 170 173 178 185 188 188 190 193 192 191 196 195 206 199 215 208 206 202 221 221 227 250 224 226 250 258 266 271 273 272 240 282
6 68 65 96 84 182 161 163 159 161 184 193 183 160 163 163 175 183 186 188 192 193 187 198 195 198 199 199 202 204 207 214 217 221 224 230 229 207 213 228 212 229 194 247 224 234 243 272 282
137 60 30 7 39 165 172 144 168 193 97 156 166 164 166 175 182 187 189 191 190 191 197 192 196 195 199 204 203 207 210 211 217 215 217 223 225 219 228 232 221 219 240 263 267 279 269 259 258
40 39 50 43 108 96 145 168 181 201 77 150 155 165 178 184 187 189 192 195 198 200 199 196 196 199 200 205 209 211 216 214 228 223 217 222 227 228 227 228 234 240 219 234 227 223 228 255 272
24 37 57 51 104 100 167 128 197 188 85 141 170 181 186 191 190 186 195 200 205 206 206 202 203 206 204 211 212 214 220 225 227 232 232 224 234 232 225 228 228 246 246 259 240 241 239 236 232
47 311 86 45 27 110 161 151 219 134 162 174 194 190 193 201 199 204 202 207 206 213 212 212 211 209 214 218 222 226 226 231 235 239 239 238 237 240 234 231 227 230 223 233 241 243 234 241 235
6 285 218 126 303 62 231 212 184 144 191 192 195 203 205 206 217 214 212 218 211 217 214 216 209 218 219 222 221 223 230 236 243 243 244 239 237 240 243 235 237 240 223 221 222 227 239 253 259
101 251 236 177 356 261 212 219 152 143 214 213 205 212 218 221 220 226 224 223 223 223 226 225 224 228 227 228 229 228 229 231 238 248 247 245 240 234 236 243 242 232 225 222 228 238 228 258 259
166 182 275 225 62 277 215 228 129 115 228 233 226 224 224 227 229 225 226 226 232 235 237 238 224 213 205 201 206 215 222 234 240 246 252 255 242 236 232 239 243 222 221 237 201 238 242 267 293
151 145 200 201 48 252 240 260 242 203 268 252 245 241 242 244 248 239 241 233 227 226 232 230 215 204 190 186 199 222 229 221 231 243 264 265 250 235 229 231 238 226 233 206 208 226 268 287 337
150 169 180 136 31 261 275 265 264 241 252 247 254 248 249 251 251 239 239 232 229 237 228 220 217 204 202 203 202 215 200 217 248 222 234 297 265 248 229 222 220 209 193 199 208 233 263 262 292
187 198 175 41 91 84 300 262 251 235 248 255 254 254 255 247 250 249 238 241 240 237 230 224 217 210 206 202 178 164 158 182 194 196 204 15 314 265 180 181 178 176 189 202 205 250 236 260 257
197 187 153 138 185 258 340 281 231 250 258 249 254 244 247 250 252 260 262 253 244 244 234 228 215 208 203 196 204 209 215 222 210 183 165 152 95 48 80 126 143 145 135 144 136 37 301 252 259
141 162 144 126 202 281 190 265 231 224 258 254 246 245 251 264 267 264 262 260 261 259 235 220 208 201 195 198 212 210 219 219 176 166 161 155 124 86 63 62 83 92 91 92 86 75 50 316 274
136 103 73 71 122 249 224 233 261 213 219 244 267 272 285 312 299 276 276 284 275 268 238 211 201 200 196 200 206 215 219 201 182 179 177 171 158 129 100 98 99 96 98 85 75 72 58 50 226
195 158 123 181 193 254 143 214 254 289 247 250 286 313 304 303 286 280 281 284 281 250 227 206 199 197 195 202 206 212 218 203 198 184 184 172 170 172 151 144 135 112 103 102 109 109 104 85 117
185 183 180 205 205 226 136 233 252 263 273 271 274 271 288 295 303 294 291 284 280 253 228 207 195 191 186 193 204 209 207 200 196 188 181 184 180 165 155 140 129 124 126 127 132 129 124 124 118
171 210 84 101 47 252 209 264 253 262 266 262 285 265 269 304 312 306 308 284 268 232 218 203 192 190 188 191 189 194 187 186 187 179 175 174 162 155 158 159 154 151 154 156 153 142 134 124 113
202 142 145 176 201 238 220 266 247 227 229 246 57 0 287 255 276 286 287 277 256 243 218 205 200 195 191 188 193 192 189 190 181 172 175 173 162 165 169 167 166 160 158 155 148 133 126 128 116
158 183 169 152 201 232 269 245 226 232 232 261 344 335 311 310 317 296 270 273 273 247 214 209 209 203 196 198 194 192 191 188 179 181 175 174 168 175 179 179 177 178 171 163 157 152 155 153 145
223 211 187 197 182 247 302 255 167 193 129 143 138 349 318 302 307 319 313 301 254 234 217 210 205 205 203 198 194 197 190 189 193 192 186 181 185 185 185 184 186 185 181 176 174 170 169 165 159